Location: Bittkow
(50.3000°N, 19.0000°E)
Time: 14:10:43
(UTC+00:00)

SL-16 R/B - Pass Details

Date: 19 September 2020
Orbit: 985 x 1007 km, 99.5° (Epoch: 27 October)

Event Time Altitude Azimuth Distance (km) Brightness Sun altitude
Exits shadow 01:57:26 16° 300° (WNW) 2,325 4.2 -23.1°
Drops below altitude 10° 01:59:26 10° 317° (NW) 2,757 4.8 -22.9°
Sets 02:02:40 0° 334° (NNW) 3,709 5.6 -22.4°
